Location: Chandolas
(44.4033°N, 4.2533°E)
Time: 10:33:06
(UTC+00:00)

PSLV R/B - Pass Details

Date: 15 November 2019
Orbit: 505 x 579 km, 97.8° (Epoch: 12 December)

Event Time Altitude Azimuth Distance (km) Brightness Sun altitude
Rises 04:54:14 0° 11° (N) 2,664 7.4 -18.6°
Reaches altitude 10° 04:56:20 10° 10° (N) 1,781 6.4 -18.2°
Maximum altitude 05:00:10 76° 285° (WNW) 557 3.6 -17.6°
Drops below altitude 10° 05:04:04 10° 199° (SSW) 1,810 6.4 -16.9°
Sets 05:06:12 0° 198° (SSW) 2,712 7.3 -16.5°
